Year,Month,Day,Hour,Minute,Value (Times are PST for temperature in C)
2018,06,17,00,00,24.10
2018,06,17,00,01,24.00
2018,06,17,00,02,24.00
2018,06,17,00,03,23.90
2018,06,17,00,04,23.90
2018,06,17,00,05,23.80
2018,06,17,00,06,23.70
2018,06,17,00,07,23.50
2018,06,17,00,08,23.40
2018,06,17,00,09,23.30
2018,06,17,00,10,23.20
2018,06,17,00,11,23.10
2018,06,17,00,12,23.00
2018,06,17,00,13,22.90
2018,06,17,00,14,22.80
2018,06,17,00,15,22.70
2018,06,17,00,16,22.70
2018,06,17,00,17,22.60
2018,06,17,00,18,22.50
2018,06,17,00,19,22.50
2018,06,17,00,20,22.50
2018,06,17,00,21,22.50
2018,06,17,00,22,22.50
2018,06,17,00,23,22.60
2018,06,17,00,24,22.60
2018,06,17,00,25,22.70
2018,06,17,00,26,22.70
2018,06,17,00,27,22.80
2018,06,17,00,28,22.80
2018,06,17,00,29,22.90
2018,06,17,00,30,22.90
2018,06,17,00,31,22.90
2018,06,17,00,32,22.90
2018,06,17,00,33,22.90
2018,06,17,00,34,22.90
2018,06,17,00,35,23.00
2018,06,17,00,36,23.00
2018,06,17,00,37,23.10
2018,06,17,00,38,23.10
2018,06,17,00,39,23.10
2018,06,17,00,40,23.10
2018,06,17,00,41,23.00
2018,06,17,00,42,23.00
2018,06,17,00,43,23.00
2018,06,17,00,44,22.90
2018,06,17,00,45,22.90
2018,06,17,00,46,22.90
2018,06,17,00,47,22.90
2018,06,17,00,48,22.80
2018,06,17,00,49,22.80
2018,06,17,00,50,22.80
2018,06,17,00,51,22.80
2018,06,17,00,52,22.70
2018,06,17,00,53,22.70
2018,06,17,00,54,22.60
2018,06,17,00,55,22.60
2018,06,17,00,56,22.70
2018,06,17,00,57,22.70
2018,06,17,00,58,22.80
2018,06,17,00,59,22.80
2018,06,17,01,00,22.90
2018,06,17,01,01,22.90
2018,06,17,01,02,23.00
2018,06,17,01,03,23.00
2018,06,17,01,04,23.00
2018,06,17,01,05,23.00
2018,06,17,01,06,23.00
2018,06,17,01,07,23.00
2018,06,17,01,08,23.00
2018,06,17,01,09,23.10
2018,06,17,01,10,23.10
2018,06,17,01,11,23.10
2018,06,17,01,12,23.10
2018,06,17,01,13,23.10
2018,06,17,01,14,23.10
2018,06,17,01,15,23.10
2018,06,17,01,16,23.10
2018,06,17,01,17,23.10
2018,06,17,01,18,23.00
2018,06,17,01,19,23.00
2018,06,17,01,20,22.90
2018,06,17,01,21,22.90
2018,06,17,01,22,22.80
2018,06,17,01,23,22.80
2018,06,17,01,24,22.80
2018,06,17,01,25,22.80
2018,06,17,01,26,22.80
2018,06,17,01,27,22.80
2018,06,17,01,28,22.80
2018,06,17,01,29,22.80
2018,06,17,01,30,22.70
2018,06,17,01,31,22.70
2018,06,17,01,32,22.70
2018,06,17,01,33,22.70
2018,06,17,01,34,22.70
2018,06,17,01,35,22.70
2018,06,17,01,36,22.70
2018,06,17,01,37,22.70
2018,06,17,01,38,22.70
2018,06,17,01,39,22.70
2018,06,17,01,40,22.70
2018,06,17,01,41,22.60
2018,06,17,01,42,22.60
2018,06,17,01,43,22.60
2018,06,17,01,44,22.50
2018,06,17,01,45,22.50
2018,06,17,01,46,22.40
2018,06,17,01,47,22.40
2018,06,17,01,48,22.40
2018,06,17,01,49,22.40
2018,06,17,01,50,22.40
2018,06,17,01,51,22.40
2018,06,17,01,52,22.40
2018,06,17,01,53,22.40
2018,06,17,01,54,22.40
2018,06,17,01,55,22.40
2018,06,17,01,56,22.40
2018,06,17,01,57,22.40
2018,06,17,01,58,22.50
2018,06,17,01,59,22.50
2018,06,17,02,00,22.50
2018,06,17,02,01,22.50
2018,06,17,02,02,22.50
2018,06,17,02,03,22.50
2018,06,17,02,04,22.50
2018,06,17,02,05,22.50
2018,06,17,02,06,22.40
2018,06,17,02,07,22.40
2018,06,17,02,08,22.40
2018,06,17,02,09,22.30
2018,06,17,02,10,22.30
2018,06,17,02,11,22.30
2018,06,17,02,12,22.30
2018,06,17,02,13,22.30
2018,06,17,02,14,22.30
2018,06,17,02,15,22.20
2018,06,17,02,16,22.20
2018,06,17,02,17,22.20
2018,06,17,02,18,22.20
2018,06,17,02,19,22.20
2018,06,17,02,20,22.20
2018,06,17,02,21,22.20
2018,06,17,02,22,22.20
2018,06,17,02,23,22.20
2018,06,17,02,24,22.20
2018,06,17,02,25,22.20
2018,06,17,02,26,22.20
2018,06,17,02,27,22.20
2018,06,17,02,28,22.20
2018,06,17,02,29,22.10
2018,06,17,02,30,22.10
2018,06,17,02,31,22.10
2018,06,17,02,32,22.10
2018,06,17,02,33,22.00
2018,06,17,02,34,22.00
2018,06,17,02,35,21.90
2018,06,17,02,36,21.90
2018,06,17,02,37,21.90
2018,06,17,02,38,21.80
2018,06,17,02,39,21.80
2018,06,17,02,40,21.80
2018,06,17,02,41,21.80
2018,06,17,02,42,21.80
2018,06,17,02,43,21.80
2018,06,17,02,44,21.80
2018,06,17,02,45,21.80
2018,06,17,02,46,21.80
2018,06,17,02,47,21.80
2018,06,17,02,48,21.80
2018,06,17,02,49,21.80
2018,06,17,02,50,21.80
2018,06,17,02,51,21.80
2018,06,17,02,52,21.70
2018,06,17,02,53,21.70
2018,06,17,02,54,21.60
2018,06,17,02,55,21.60
2018,06,17,02,56,21.50
2018,06,17,02,57,21.50
2018,06,17,02,58,21.50
2018,06,17,02,59,21.50
2018,06,17,03,00,21.50
2018,06,17,03,01,21.50
2018,06,17,03,02,21.60
2018,06,17,03,03,21.60
2018,06,17,03,04,21.60
2018,06,17,03,05,21.50
2018,06,17,03,06,21.50
2018,06,17,03,07,21.40
2018,06,17,03,08,21.40
2018,06,17,03,09,21.30
2018,06,17,03,10,21.30
2018,06,17,03,11,21.20
2018,06,17,03,12,21.20
2018,06,17,03,13,21.20
2018,06,17,03,14,21.10
2018,06,17,03,15,21.10
2018,06,17,03,16,21.10
2018,06,17,03,17,21.10
2018,06,17,03,18,21.10
2018,06,17,03,19,21.00
2018,06,17,03,20,21.00
2018,06,17,03,21,20.90
2018,06,17,03,22,20.90
2018,06,17,03,23,20.90
2018,06,17,03,24,20.90
2018,06,17,03,25,20.90
2018,06,17,03,26,20.90
2018,06,17,03,27,20.90
2018,06,17,03,28,21.00
2018,06,17,03,29,21.00
2018,06,17,03,30,21.10
2018,06,17,03,31,21.10
2018,06,17,03,32,21.20
2018,06,17,03,33,21.20
2018,06,17,03,34,21.20
2018,06,17,03,35,21.30
2018,06,17,03,36,21.30
2018,06,17,03,37,21.40
2018,06,17,03,38,21.40
2018,06,17,03,39,21.50
2018,06,17,03,40,21.50
2018,06,17,03,41,21.60
2018,06,17,03,42,21.60
2018,06,17,03,43,21.60
2018,06,17,03,44,21.60
2018,06,17,03,45,21.70
2018,06,17,03,46,21.70
2018,06,17,03,47,21.70
2018,06,17,03,48,21.70
2018,06,17,03,49,21.60
2018,06,17,03,50,21.60
2018,06,17,03,51,21.50
2018,06,17,03,52,21.50
2018,06,17,03,53,21.40
2018,06,17,03,54,21.40
2018,06,17,03,55,21.30
2018,06,17,03,56,21.30
2018,06,17,03,57,21.30
2018,06,17,03,58,21.30
2018,06,17,03,59,21.30
2018,06,17,04,00,21.30
2018,06,17,04,01,21.20
2018,06,17,04,02,21.20
2018,06,17,04,03,21.20
2018,06,17,04,04,21.20
2018,06,17,04,05,21.20
2018,06,17,04,06,21.20
2018,06,17,04,07,21.10
2018,06,17,04,08,21.10
2018,06,17,04,09,21.10
2018,06,17,04,10,21.00
2018,06,17,04,11,21.00
2018,06,17,04,12,21.00
2018,06,17,04,13,21.00
2018,06,17,04,14,21.00
2018,06,17,04,15,20.90
2018,06,17,04,16,20.90
2018,06,17,04,17,20.90
2018,06,17,04,18,20.90
2018,06,17,04,19,20.90
2018,06,17,04,20,20.90
2018,06,17,04,21,20.90
2018,06,17,04,22,20.90
2018,06,17,04,23,20.90
2018,06,17,04,24,20.90
2018,06,17,04,25,20.90
2018,06,17,04,26,20.90
2018,06,17,04,27,20.90
2018,06,17,04,28,21.00
2018,06,17,04,29,21.00
2018,06,17,04,30,20.90
2018,06,17,04,31,20.80
2018,06,17,04,32,20.80
2018,06,17,04,33,20.70
2018,06,17,04,34,20.60
2018,06,17,04,35,20.50
2018,06,17,04,36,20.40
2018,06,17,04,37,20.40
2018,06,17,04,38,20.30
2018,06,17,04,39,20.30
2018,06,17,04,40,20.20
2018,06,17,04,41,20.20
2018,06,17,04,42,20.10
2018,06,17,04,43,20.00
2018,06,17,04,44,20.00
2018,06,17,04,45,19.90
2018,06,17,04,46,19.80
2018,06,17,04,47,19.70
2018,06,17,04,48,19.60
2018,06,17,04,49,19.60
2018,06,17,04,50,19.50
2018,06,17,04,51,19.40
2018,06,17,04,52,19.30
2018,06,17,04,53,19.30
2018,06,17,04,54,19.20
2018,06,17,04,55,19.20
2018,06,17,04,56,19.10
2018,06,17,04,57,19.10
2018,06,17,04,58,19.10
2018,06,17,04,59,19.00
2018,06,17,05,00,19.00
2018,06,17,05,01,19.00
2018,06,17,05,02,19.00
2018,06,17,05,03,18.90
2018,06,17,05,04,18.90
2018,06,17,05,05,18.80
2018,06,17,05,06,18.80
2018,06,17,05,07,18.70
2018,06,17,05,08,18.70
2018,06,17,05,09,18.60
2018,06,17,05,10,18.60
2018,06,17,05,11,18.60
2018,06,17,05,12,18.50
2018,06,17,05,13,18.50
2018,06,17,05,14,18.50
2018,06,17,05,15,18.50
2018,06,17,05,16,18.50
2018,06,17,05,17,18.50
2018,06,17,05,18,18.60
2018,06,17,05,19,18.60
2018,06,17,05,20,18.60
2018,06,17,05,21,18.60
2018,06,17,05,22,18.60
2018,06,17,05,23,18.50
2018,06,17,05,24,18.50
2018,06,17,05,25,18.40
2018,06,17,05,26,18.30
2018,06,17,05,27,18.30
2018,06,17,05,28,18.30
2018,06,17,05,29,18.30
2018,06,17,05,30,18.20
2018,06,17,05,31,18.20
2018,06,17,05,32,18.20
2018,06,17,05,33,18.20
2018,06,17,05,34,18.20
2018,06,17,05,35,18.20
2018,06,17,05,36,18.20
2018,06,17,05,37,18.20
2018,06,17,05,38,18.20
2018,06,17,05,39,18.20
2018,06,17,05,40,18.10
2018,06,17,05,41,18.10
2018,06,17,05,42,18.10
2018,06,17,05,43,18.10
2018,06,17,05,44,18.10
2018,06,17,05,45,18.10
2018,06,17,05,46,18.10
2018,06,17,05,47,18.20
2018,06,17,05,48,18.20
2018,06,17,05,49,18.20
2018,06,17,05,50,18.20
2018,06,17,05,51,18.20
2018,06,17,05,52,18.20
2018,06,17,05,53,18.20
2018,06,17,05,54,18.30
2018,06,17,05,55,18.30
2018,06,17,05,56,18.30
2018,06,17,05,57,18.30
2018,06,17,05,58,18.30
2018,06,17,05,59,18.30
2018,06,17,06,00,18.30
2018,06,17,06,01,18.30
2018,06,17,06,02,18.30
2018,06,17,06,03,18.30
2018,06,17,06,04,18.30
2018,06,17,06,05,18.30
2018,06,17,06,06,18.30
2018,06,17,06,07,18.30
2018,06,17,06,08,18.30
2018,06,17,06,09,18.30
2018,06,17,06,10,18.30
2018,06,17,06,11,18.30
2018,06,17,06,12,18.30
2018,06,17,06,13,18.30
2018,06,17,06,14,18.40
2018,06,17,06,15,18.40
2018,06,17,06,16,18.40
2018,06,17,06,17,18.40
2018,06,17,06,18,18.50
2018,06,17,06,19,18.50
2018,06,17,06,20,18.50
2018,06,17,06,21,18.60
2018,06,17,06,22,18.60
2018,06,17,06,23,18.60
2018,06,17,06,24,18.70
2018,06,17,06,25,18.70
2018,06,17,06,26,18.70
2018,06,17,06,27,18.70
2018,06,17,06,28,18.80
2018,06,17,06,29,18.80
2018,06,17,06,30,18.80
2018,06,17,06,31,18.80
2018,06,17,06,32,18.90
2018,06,17,06,33,18.90
2018,06,17,06,34,18.90
2018,06,17,06,35,18.90
2018,06,17,06,36,18.90
2018,06,17,06,37,19.00
2018,06,17,06,38,19.00
2018,06,17,06,39,19.00
2018,06,17,06,40,19.10
2018,06,17,06,41,19.10
2018,06,17,06,42,19.20
2018,06,17,06,43,19.20
2018,06,17,06,44,19.20
2018,06,17,06,45,19.30
2018,06,17,06,46,19.30
2018,06,17,06,47,19.40
2018,06,17,06,48,19.40
2018,06,17,06,49,19.50
2018,06,17,06,50,19.50
2018,06,17,06,51,19.50
2018,06,17,06,52,19.60
2018,06,17,06,53,19.60
2018,06,17,06,54,19.60
2018,06,17,06,55,19.70
2018,06,17,06,56,19.70
2018,06,17,06,57,19.70
2018,06,17,06,58,19.70
2018,06,17,06,59,19.80
2018,06,17,07,00,19.80
2018,06,17,07,01,19.80
2018,06,17,07,02,19.80
2018,06,17,07,03,19.80
2018,06,17,07,04,19.80
2018,06,17,07,05,19.80
2018,06,17,07,06,19.80
2018,06,17,07,07,19.80
2018,06,17,07,08,19.80
2018,06,17,07,09,19.80
2018,06,17,07,10,19.90
2018,06,17,07,11,19.90
2018,06,17,07,12,19.90
2018,06,17,07,13,19.90
2018,06,17,07,14,20.00
2018,06,17,07,15,20.00
2018,06,17,07,16,20.10
2018,06,17,07,17,20.10
2018,06,17,07,18,20.10
2018,06,17,07,19,20.20
2018,06,17,07,20,20.20
2018,06,17,07,21,20.20
2018,06,17,07,22,20.30
2018,06,17,07,23,20.30
2018,06,17,07,24,20.40
2018,06,17,07,25,20.40
2018,06,17,07,26,20.40
2018,06,17,07,27,20.40
2018,06,17,07,28,20.50
2018,06,17,07,29,20.50
2018,06,17,07,30,20.60
2018,06,17,07,31,20.70
2018,06,17,07,32,20.80
2018,06,17,07,33,20.80
2018,06,17,07,34,20.90
2018,06,17,07,35,20.90
2018,06,17,07,36,21.00
2018,06,17,07,37,21.00
2018,06,17,07,38,21.10
2018,06,17,07,39,21.10
2018,06,17,07,40,21.10
2018,06,17,07,41,21.10
2018,06,17,07,42,21.10
2018,06,17,07,43,21.20
2018,06,17,07,44,21.20
2018,06,17,07,45,21.20
2018,06,17,07,46,21.20
2018,06,17,07,47,21.20
2018,06,17,07,48,21.30
2018,06,17,07,49,21.30
2018,06,17,07,50,21.30
2018,06,17,07,51,21.40
2018,06,17,07,52,21.40
2018,06,17,07,53,21.40
2018,06,17,07,54,21.40
2018,06,17,07,55,21.50
2018,06,17,07,56,21.50
2018,06,17,07,57,21.60
2018,06,17,07,58,21.60
2018,06,17,07,59,21.70
2018,06,17,08,00,21.80
2018,06,17,08,01,21.90
2018,06,17,08,02,22.00
2018,06,17,08,03,22.10
2018,06,17,08,04,22.20
2018,06,17,08,05,22.30
2018,06,17,08,06,22.40
2018,06,17,08,07,22.40
2018,06,17,08,08,22.50
2018,06,17,08,09,22.50
2018,06,17,08,10,22.60
2018,06,17,08,11,22.60
2018,06,17,08,12,22.60
2018,06,17,08,13,22.70
2018,06,17,08,14,22.70
2018,06,17,08,15,22.70
2018,06,17,08,16,22.80
2018,06,17,08,17,22.80
2018,06,17,08,18,22.80
2018,06,17,08,19,22.80
2018,06,17,08,20,22.80
2018,06,17,08,21,22.80
2018,06,17,08,22,22.90
2018,06,17,08,23,22.90
2018,06,17,08,24,23.00
2018,06,17,08,25,23.10
2018,06,17,08,26,23.10
2018,06,17,08,27,23.20
2018,06,17,08,28,23.20
2018,06,17,08,29,23.30
2018,06,17,08,30,23.30
2018,06,17,08,31,23.40
2018,06,17,08,32,23.40
2018,06,17,08,33,23.50
2018,06,17,08,34,23.50
2018,06,17,08,35,23.50
2018,06,17,08,36,23.50
2018,06,17,08,37,23.50
2018,06,17,08,38,23.60
2018,06,17,08,39,23.60
2018,06,17,08,40,23.60
2018,06,17,08,41,23.60
2018,06,17,08,42,23.60
2018,06,17,08,43,23.60
2018,06,17,08,44,23.70
2018,06,17,08,45,23.70
2018,06,17,08,46,23.70
2018,06,17,08,47,23.80
2018,06,17,08,48,23.80
2018,06,17,08,49,23.80
2018,06,17,08,50,23.80
2018,06,17,08,51,23.80
2018,06,17,08,52,23.90
2018,06,17,08,53,23.90
2018,06,17,08,54,24.00
2018,06,17,08,55,24.00
2018,06,17,08,56,24.10
2018,06,17,08,57,24.20
2018,06,17,08,58,24.20
2018,06,17,08,59,24.20
2018,06,17,09,00,24.20
2018,06,17,09,01,24.20
2018,06,17,09,02,24.10
2018,06,17,09,03,24.20
2018,06,17,09,04,24.20
2018,06,17,09,05,24.30
2018,06,17,09,06,24.40
2018,06,17,09,07,24.50
2018,06,17,09,08,24.60
2018,06,17,09,09,24.60
2018,06,17,09,10,24.70
2018,06,17,09,11,24.70
2018,06,17,09,12,24.70
2018,06,17,09,13,24.70
2018,06,17,09,14,24.80
2018,06,17,09,15,24.90
2018,06,17,09,16,24.90
2018,06,17,09,17,24.90
2018,06,17,09,18,25.00
2018,06,17,09,19,25.00
2018,06,17,09,20,25.00
2018,06,17,09,21,25.10
2018,06,17,09,22,25.10
2018,06,17,09,23,25.20
2018,06,17,09,24,25.30
2018,06,17,09,25,25.30
2018,06,17,09,26,25.30
2018,06,17,09,27,25.40
2018,06,17,09,28,25.30
2018,06,17,09,29,25.30
2018,06,17,09,30,25.30
2018,06,17,09,31,25.30
2018,06,17,09,32,25.20
2018,06,17,09,33,25.20
2018,06,17,09,34,25.10
2018,06,17,09,35,25.10
2018,06,17,09,36,25.10
2018,06,17,09,37,25.10
2018,06,17,09,38,25.10
2018,06,17,09,39,25.10
2018,06,17,09,40,25.10
2018,06,17,09,41,25.20
2018,06,17,09,42,25.20
2018,06,17,09,43,25.20
2018,06,17,09,44,25.30
2018,06,17,09,45,25.40
2018,06,17,09,46,25.40
2018,06,17,09,47,25.40
2018,06,17,09,48,25.40
2018,06,17,09,49,25.40
2018,06,17,09,50,25.40
2018,06,17,09,51,25.50
2018,06,17,09,52,25.50
2018,06,17,09,53,25.50
2018,06,17,09,54,25.40
2018,06,17,09,55,25.40
2018,06,17,09,56,25.40
2018,06,17,09,57,25.30
2018,06,17,09,58,25.40
2018,06,17,09,59,25.50
2018,06,17,10,00,25.60
2018,06,17,10,01,25.60
2018,06,17,10,02,25.70
2018,06,17,10,03,25.60
2018,06,17,10,04,25.70
2018,06,17,10,05,25.70
2018,06,17,10,06,25.70
2018,06,17,10,07,25.80
2018,06,17,10,08,25.80
2018,06,17,10,09,25.80
2018,06,17,10,10,25.90
2018,06,17,10,11,25.90
2018,06,17,10,12,25.90
2018,06,17,10,13,25.90
2018,06,17,10,14,25.90
2018,06,17,10,15,25.90
2018,06,17,10,16,26.00
2018,06,17,10,17,26.00
2018,06,17,10,18,26.00
2018,06,17,10,19,25.90
2018,06,17,10,20,25.90
2018,06,17,10,21,26.00
2018,06,17,10,22,26.00
2018,06,17,10,23,26.10
2018,06,17,10,24,26.10
2018,06,17,10,25,26.10
2018,06,17,10,26,26.10
2018,06,17,10,27,26.10
2018,06,17,10,28,26.20
2018,06,17,10,29,26.20
2018,06,17,10,30,26.20
2018,06,17,10,31,26.30
2018,06,17,10,32,26.30
2018,06,17,10,33,26.40
2018,06,17,10,34,26.40
2018,06,17,10,35,26.50
2018,06,17,10,36,26.60
2018,06,17,10,37,26.60
2018,06,17,10,38,26.60
2018,06,17,10,39,26.70
2018,06,17,10,40,26.70
2018,06,17,10,41,26.70
2018,06,17,10,42,26.70
2018,06,17,10,43,26.70
2018,06,17,10,44,26.70
2018,06,17,10,45,26.70
2018,06,17,10,46,26.70
2018,06,17,10,47,26.60
2018,06,17,10,48,26.60
2018,06,17,10,49,26.50
2018,06,17,10,50,26.50
2018,06,17,10,51,26.50
2018,06,17,10,52,26.50
2018,06,17,10,53,26.50
2018,06,17,10,54,26.40
2018,06,17,10,55,26.50
2018,06,17,10,56,26.50
2018,06,17,10,57,26.60
2018,06,17,10,58,26.50
2018,06,17,10,59,26.40
2018,06,17,11,00,26.50
2018,06,17,11,01,26.60
2018,06,17,11,02,26.60
2018,06,17,11,03,26.60
2018,06,17,11,04,26.70
2018,06,17,11,05,26.70
2018,06,17,11,06,26.80
2018,06,17,11,07,26.80
2018,06,17,11,08,26.90
2018,06,17,11,09,26.90
2018,06,17,11,10,27.00
2018,06,17,11,11,27.10
2018,06,17,11,12,27.10
2018,06,17,11,13,27.20
2018,06,17,11,14,27.20
2018,06,17,11,15,27.20
2018,06,17,11,16,27.20
2018,06,17,11,17,27.20
2018,06,17,11,18,27.20
2018,06,17,11,19,27.30
2018,06,17,11,20,27.30
2018,06,17,11,21,27.40
2018,06,17,11,22,27.50
2018,06,17,11,23,27.60
2018,06,17,11,24,27.60
2018,06,17,11,25,27.60
2018,06,17,11,26,27.60
2018,06,17,11,27,27.60
2018,06,17,11,28,27.60
2018,06,17,11,29,27.60
2018,06,17,11,30,27.60
2018,06,17,11,31,27.70
2018,06,17,11,32,27.80
2018,06,17,11,33,27.80
2018,06,17,11,34,27.80
2018,06,17,11,35,27.90
2018,06,17,11,36,27.90
2018,06,17,11,37,28.00
2018,06,17,11,38,28.10
2018,06,17,11,39,28.10
2018,06,17,11,40,28.20
2018,06,17,11,41,28.20
2018,06,17,11,42,28.20
2018,06,17,11,43,28.30
2018,06,17,11,44,28.30
2018,06,17,11,45,28.30
2018,06,17,11,46,28.30
2018,06,17,11,47,28.30
2018,06,17,11,48,28.30
2018,06,17,11,49,28.20
2018,06,17,11,50,28.10
2018,06,17,11,51,28.10
2018,06,17,11,52,28.10
2018,06,17,11,53,28.10
2018,06,17,11,54,28.10
2018,06,17,11,55,28.10
2018,06,17,11,56,28.10
2018,06,17,11,57,28.00
2018,06,17,11,58,27.90
2018,06,17,11,59,27.90
2018,06,17,12,00,27.90
2018,06,17,12,01,27.90
2018,06,17,12,02,28.00
2018,06,17,12,03,28.00
2018,06,17,12,04,28.10
2018,06,17,12,05,28.10
2018,06,17,12,06,28.10
2018,06,17,12,07,28.10
2018,06,17,12,08,28.10
2018,06,17,12,09,28.20
2018,06,17,12,10,28.20
2018,06,17,12,11,28.20
2018,06,17,12,12,28.30
2018,06,17,12,13,28.30
2018,06,17,12,14,28.30
2018,06,17,12,15,28.30
2018,06,17,12,16,28.20
2018,06,17,12,17,28.20
2018,06,17,12,18,28.20
2018,06,17,12,19,28.20
2018,06,17,12,20,28.20
2018,06,17,12,21,28.30
2018,06,17,12,22,28.40
2018,06,17,12,23,28.50
2018,06,17,12,24,28.60
2018,06,17,12,25,28.70
2018,06,17,12,26,28.70
2018,06,17,12,27,28.80
2018,06,17,12,28,28.80
2018,06,17,12,29,28.70
2018,06,17,12,30,28.50
2018,06,17,12,31,28.40
2018,06,17,12,32,28.30
2018,06,17,12,33,28.20
2018,06,17,12,34,28.10
2018,06,17,12,35,28.10
2018,06,17,12,36,28.10
2018,06,17,12,37,28.00
2018,06,17,12,38,27.80
2018,06,17,12,39,27.70
2018,06,17,12,40,27.70
2018,06,17,12,41,27.60
2018,06,17,12,42,27.60
2018,06,17,12,43,27.60
2018,06,17,12,44,27.60
2018,06,17,12,45,27.60
2018,06,17,12,46,27.70
2018,06,17,12,47,27.80
2018,06,17,12,48,27.80
2018,06,17,12,49,27.80
2018,06,17,12,50,27.90
2018,06,17,12,51,28.00
2018,06,17,12,52,28.20
2018,06,17,12,53,28.20
2018,06,17,12,54,28.10
2018,06,17,12,55,28.00
2018,06,17,12,56,28.00
2018,06,17,12,57,28.00
2018,06,17,12,58,27.90
2018,06,17,12,59,28.00
2018,06,17,13,00,28.00
2018,06,17,13,01,28.10
2018,06,17,13,02,28.10
2018,06,17,13,03,28.20
2018,06,17,13,04,28.20
2018,06,17,13,05,28.20
2018,06,17,13,06,28.20
2018,06,17,13,07,28.30
2018,06,17,13,08,28.20
2018,06,17,13,09,28.20
2018,06,17,13,10,28.20
2018,06,17,13,11,28.20
2018,06,17,13,12,28.10
2018,06,17,13,13,28.10
2018,06,17,13,14,28.20
2018,06,17,13,15,28.20
2018,06,17,13,16,28.30
2018,06,17,13,17,28.30
2018,06,17,13,18,28.30
2018,06,17,13,19,28.20
2018,06,17,13,20,28.20
2018,06,17,13,21,28.30
2018,06,17,13,22,28.30
2018,06,17,13,23,28.30
2018,06,17,13,24,28.30
2018,06,17,13,25,28.30
2018,06,17,13,26,28.30
2018,06,17,13,27,28.30
2018,06,17,13,28,28.40
2018,06,17,13,29,28.50
2018,06,17,13,30,28.60
2018,06,17,13,31,28.50
2018,06,17,13,32,28.50
2018,06,17,13,33,28.40
2018,06,17,13,34,28.40
2018,06,17,13,35,28.40
2018,06,17,13,36,28.50
2018,06,17,13,37,28.50
2018,06,17,13,38,28.60
2018,06,17,13,39,28.60
2018,06,17,13,40,28.50
2018,06,17,13,41,28.40
2018,06,17,13,42,28.40
2018,06,17,13,43,28.30
2018,06,17,13,44,28.30
2018,06,17,13,45,28.40
2018,06,17,13,46,28.50
2018,06,17,13,47,28.60
2018,06,17,13,48,28.70
2018,06,17,13,49,28.90
2018,06,17,13,50,29.10
2018,06,17,13,51,29.30
2018,06,17,13,52,29.50
2018,06,17,13,53,29.70
2018,06,17,13,54,29.90
2018,06,17,13,55,30.00
2018,06,17,13,56,30.00
2018,06,17,13,57,30.10
2018,06,17,13,58,30.10
2018,06,17,13,59,30.10
2018,06,17,14,00,30.10
2018,06,17,14,01,30.20
2018,06,17,14,02,30.20
2018,06,17,14,03,30.30
2018,06,17,14,04,30.30
2018,06,17,14,05,30.40
2018,06,17,14,06,30.50
2018,06,17,14,07,30.60
2018,06,17,14,08,30.60
2018,06,17,14,09,30.70
2018,06,17,14,10,30.80
2018,06,17,14,11,30.70
2018,06,17,14,12,30.70
2018,06,17,14,13,30.60
2018,06,17,14,14,30.50
2018,06,17,14,15,30.40
2018,06,17,14,16,30.20
2018,06,17,14,17,29.90
2018,06,17,14,18,29.70
2018,06,17,14,19,29.50
2018,06,17,14,20,29.40
2018,06,17,14,21,29.30
2018,06,17,14,22,29.30
2018,06,17,14,23,29.40
2018,06,17,14,24,29.50
2018,06,17,14,25,29.60
2018,06,17,14,26,29.70
2018,06,17,14,27,29.80
2018,06,17,14,28,29.80
2018,06,17,14,29,29.90
2018,06,17,14,30,29.80
2018,06,17,14,31,29.60
2018,06,17,14,32,29.40
2018,06,17,14,33,29.30
2018,06,17,14,34,29.20
2018,06,17,14,35,29.10
2018,06,17,14,36,29.10
2018,06,17,14,37,29.00
2018,06,17,14,38,29.00
2018,06,17,14,39,29.00
2018,06,17,14,40,29.10
2018,06,17,14,41,29.20
2018,06,17,14,42,29.30
2018,06,17,14,43,29.30
2018,06,17,14,44,29.30
2018,06,17,14,45,29.30
2018,06,17,14,46,29.30
2018,06,17,14,47,29.40
2018,06,17,14,48,29.50
2018,06,17,14,49,29.60
2018,06,17,14,50,29.50
2018,06,17,14,51,29.40
2018,06,17,14,52,29.30
2018,06,17,14,53,29.30
2018,06,17,14,54,29.20
2018,06,17,14,55,29.20
2018,06,17,14,56,29.10
2018,06,17,14,57,29.10
2018,06,17,14,58,29.10
2018,06,17,14,59,29.20
2018,06,17,15,00,29.30
2018,06,17,15,01,29.40
2018,06,17,15,02,29.60
2018,06,17,15,03,29.70
2018,06,17,15,04,29.80
2018,06,17,15,05,29.80
2018,06,17,15,06,29.80
2018,06,17,15,07,29.80
2018,06,17,15,08,29.70
2018,06,17,15,09,29.70
2018,06,17,15,10,29.60
2018,06,17,15,11,29.50
2018,06,17,15,12,29.50
2018,06,17,15,13,29.50
2018,06,17,15,14,29.60
2018,06,17,15,15,29.60
2018,06,17,15,16,29.70
2018,06,17,15,17,29.70
2018,06,17,15,18,29.70
2018,06,17,15,19,29.90
2018,06,17,15,20,30.00
2018,06,17,15,21,30.10
2018,06,17,15,22,30.20
2018,06,17,15,23,30.20
2018,06,17,15,24,30.30
2018,06,17,15,25,30.40
2018,06,17,15,26,30.50
2018,06,17,15,27,30.60
2018,06,17,15,28,30.60
2018,06,17,15,29,30.70
2018,06,17,15,30,30.70
2018,06,17,15,31,30.70
2018,06,17,15,32,30.70
2018,06,17,15,33,30.80
2018,06,17,15,34,30.80
2018,06,17,15,35,30.80
2018,06,17,15,36,30.80
2018,06,17,15,37,30.90
2018,06,17,15,38,31.00
2018,06,17,15,39,31.10
2018,06,17,15,40,31.10
2018,06,17,15,41,31.10
2018,06,17,15,42,31.20
2018,06,17,15,43,31.10
2018,06,17,15,44,31.10
2018,06,17,15,45,31.00
2018,06,17,15,46,31.00
2018,06,17,15,47,31.00
2018,06,17,15,48,31.00
2018,06,17,15,49,31.00
2018,06,17,15,50,31.10
2018,06,17,15,51,31.10
2018,06,17,15,52,31.10
2018,06,17,15,53,31.00
2018,06,17,15,54,31.10
2018,06,17,15,55,31.10
2018,06,17,15,56,31.10
2018,06,17,15,57,31.00
2018,06,17,15,58,30.80
2018,06,17,15,59,30.70
2018,06,17,16,00,30.70
2018,06,17,16,01,30.60
2018,06,17,16,02,30.60
2018,06,17,16,03,30.60
2018,06,17,16,04,30.60
2018,06,17,16,05,30.60
2018,06,17,16,06,30.60
2018,06,17,16,07,30.60
2018,06,17,16,08,30.60
2018,06,17,16,09,30.60
2018,06,17,16,10,30.60
2018,06,17,16,11,30.60
2018,06,17,16,12,30.60
2018,06,17,16,13,30.70
2018,06,17,16,14,30.80
2018,06,17,16,15,31.00
2018,06,17,16,16,31.10
2018,06,17,16,17,31.20
2018,06,17,16,18,31.30
2018,06,17,16,19,31.40
2018,06,17,16,20,31.40
2018,06,17,16,21,31.40
2018,06,17,16,22,31.40
2018,06,17,16,23,31.50
2018,06,17,16,24,31.50
2018,06,17,16,25,31.50
2018,06,17,16,26,31.40
2018,06,17,16,27,31.40
2018,06,17,16,28,31.40
2018,06,17,16,29,31.50
2018,06,17,16,30,31.40
2018,06,17,16,31,31.40
2018,06,17,16,32,31.50
2018,06,17,16,33,31.50
2018,06,17,16,34,31.60
2018,06,17,16,35,31.60
2018,06,17,16,36,31.50
2018,06,17,16,37,31.40
2018,06,17,16,38,31.30
2018,06,17,16,39,31.20
2018,06,17,16,40,31.20
2018,06,17,16,41,31.20
2018,06,17,16,42,31.20
2018,06,17,16,43,31.30
2018,06,17,16,44,31.20
2018,06,17,16,45,31.20
2018,06,17,16,46,31.20
2018,06,17,16,47,31.30
2018,06,17,16,48,31.30
2018,06,17,16,49,31.30
2018,06,17,16,50,31.40
2018,06,17,16,51,31.40
2018,06,17,16,52,31.50
2018,06,17,16,53,31.50
2018,06,17,16,54,31.50
2018,06,17,16,55,31.60
2018,06,17,16,56,31.60
2018,06,17,16,57,31.60
2018,06,17,16,58,31.60
2018,06,17,16,59,31.60
2018,06,17,17,00,31.60
2018,06,17,17,01,31.50
2018,06,17,17,02,31.40
2018,06,17,17,03,31.30
2018,06,17,17,04,31.20
2018,06,17,17,05,31.10
2018,06,17,17,06,31.10
2018,06,17,17,07,31.10
2018,06,17,17,08,31.10
2018,06,17,17,09,31.10
2018,06,17,17,10,31.20
2018,06,17,17,11,31.20
2018,06,17,17,12,31.20
2018,06,17,17,13,31.30
2018,06,17,17,14,31.20
2018,06,17,17,15,31.10
2018,06,17,17,16,31.10
2018,06,17,17,17,31.10
2018,06,17,17,18,31.10
2018,06,17,17,19,31.10